Location: Newark
(25.0000°N, 73.5000°E)
Time: 22:28:41
(UTC+00:00)

X-37B - Pass Details

Date: 22 June 2021
Orbit: 383 x 392 km, 45.0° (Epoch: 01 July)

Event Time Altitude Azimuth Distance (km) Brightness Sun altitude
Exits shadow 21:44:37 - 346° (NNW) 1,777 4.3 -28.5°
Reaches altitude 10° 21:46:29 10° 13° (NNE) 1,401 4.1 -28.2°
Maximum altitude 21:47:22 11° 29° (NNE) 1,353 4.2 -28.1°
Drops below altitude 10° 21:48:14 10° 45° (NE) 1,401 4.4 -28.0°
Sets 21:51:40 0° 85° (E) 2,255 5.1 -27.4°
